Date,TemperatureHighF,TemperatureAvgF,TemperatureLowF,DewpointHighF,DewpointAvgF,DewpointLowF,HumidityHigh,HumidityAvg,HumidityLow,PressureMaxIn,PressureMinIn,WindSpeedMaxMPH,WindSpeedAvgMPH,GustSpeedMaxMPH,PrecipitationSumIn
2013-1-1,50.5,44.9,38.3,30.8,23.8,11.7,68,45,25,29.73,29.59,15,3,15,0.00
2013-1-2,45.7,38.5,31.6,31.4,28.0,22.7,83,67,46,29.91,29.69,4,1,4,0.00
2013-1-3,46.9,34.5,28.9,22.7,14.2,7.3,68,45,23,29.94,29.84,6,2,7,0.00
2013-1-4,52.0,37.1,26.8,15.9,9.8,-3.6,60,35,10,29.93,29.81,10,4,14,0.00
2013-1-5,55.2,40.4,28.0,26.4,9.0,-4.1,58,31,10,30.06,29.88,6,2,12,0.02
2013-1-6,56.3,43.5,33.4,28.9,21.8,11.3,72,44,17,29.88,29.73,11,3,11,0.00
2013-1-7,55.9,41.3,28.8,24.8,20.9,10.4,85,47,16,30.13,29.84,8,2,8,0.00
2013-1-8,57.0,38.3,25.5,33.1,27.5,23.5,96,70,28,30.12,30.04,8,2,13,0.00
2013-1-9,61.2,46.4,28.4,46.4,37.4,28.2,99,74,44,30.09,29.97,13,2,13,0.00
2013-1-10,68.4,49.8,37.9,34.3,17.9,3.5,54,32,10,30.27,30.09,7,2,7,0.00
2013-1-11,43.2,41.7,38.5,42.9,34.7,22.3,99,78,46,30.17,29.80,7,2,12,0.07
2013-1-12,65.5,47.5,38.7,50.9,44.6,38.4,99,91,51,29.87,29.80,4,1,4,0.01
2013-1-13,65.8,50.3,48.2,60.2,48.0,46.3,93,92,81,29.83,29.68,9,1,15,0.01
2013-1-14,63.9,55.8,40.8,63.2,53.7,40.6,99,93,84,29.99,29.69,13,3,13,0.24
2013-1-15,40.8,38.0,36.7,40.2,37.7,36.4,99,99,99,30.02,29.82,5,2,8,0.91
2013-1-16,43.5,38.6,35.4,43.3,38.3,35.2,99,99,98,29.84,29.60,7,2,11,0.19
2013-1-17,44.4,36.3,32.7,44.2,36.1,32.5,99,99,99,29.82,29.73,12,1,12,0.63
2013-1-18,45.9,35.1,27.5,33.4,22.7,6.5,99,68,20,30.18,29.81,5,1,51,0.13
2013-1-19,56.3,42.2,30.2,23.3,19.0,-0.9,75,42,10,30.12,29.72,104,8,104,0.00
2013-1-20,64.4,48.5,37.4,23.4,8.0,-11.3,53,23,10,29.76,29.57,17,5,17,0.33
2013-1-21,58.5,40.9,28.8,10.0,-4.3,-18.5,41,16,10,29.77,29.48,14,4,48,0.00
2013-1-22,34.3,24.0,14.5,-11.1,-18.4,-27.5,30,15,10,29.97,29.64,11,4,12,0.00
2013-1-23,37.9,19.0,10.2,16.1,-10.1,-21.1,79,31,10,30.02,29.80,6,1,8,0.00
2013-1-24,35.2,22.4,11.8,16.6,-1.5,-23.0,92,47,10,30.22,29.74,12,4,17,0.00
2013-1-25,23.0,17.2,11.7,16.4,5.4,-15.7,83,61,17,30.21,29.74,8,2,8,0.00
2013-1-26,38.5,27.9,19.2,19.5,17.1,-14.3,90,67,10,30.12,29.75,7,1,7,3.12
2013-1-27,33.1,27.5,26.4,19.3,19.1,17.5,74,70,53,30.25,29.81,8,2,10,0.00
2013-1-28,52.2,40.5,31.3,43.8,34.0,17.8,99,79,55,29.82,29.45,11,3,15,0.06
2013-1-29,79.3,59.6,43.0,52.5,44.4,40.3,99,63,26,29.49,29.34,10,3,11,0.00
2013-1-30,70.9,63.3,57.0,64.9,59.3,51.5,99,87,71,29.34,28.62,19,7,19,1.46
2013-1-31,62.4,42.2,9.5,62.2,12.9,-10.5,99,35,10,30.27,28.64,23,9,27,0.28